TimeEDT,TemperatureF,Dew PointF,Humidity,Sea Level PressureIn,VisibilityMPH,Wind Direction,Wind SpeedMPH,Gust SpeedMPH,PrecipitationIn,Events,Conditions,WindDirDegrees,DateUTC
12:51 AM,57.0,39.0,51,30.14,10.0,ESE,8.1,-,N/A,,Mostly Cloudy,120,2013-05-05 04:51:00
1:51 AM,53.1,39.0,59,30.13,10.0,ESE,8.1,-,N/A,,Mostly Cloudy,120,2013-05-05 05:51:00
2:51 AM,53.1,39.0,59,30.13,10.0,SE,6.9,-,N/A,,Mostly Cloudy,140,2013-05-05 06:51:00
3:51 AM,53.1,39.0,59,30.13,10.0,SE,5.8,-,N/A,,Partly Cloudy,130,2013-05-05 07:51:00
4:51 AM,50.0,39.0,66,30.13,10.0,East,5.8,-,N/A,,Scattered Clouds,100,2013-05-05 08:51:00
5:51 AM,45.0,37.9,76,30.14,10.0,East,5.8,-,N/A,,Scattered Clouds,100,2013-05-05 09:51:00
6:51 AM,46.9,39.0,74,30.14,10.0,East,5.8,-,N/A,,Mostly Cloudy,100,2013-05-05 10:51:00
7:51 AM,53.1,41.0,64,30.14,10.0,ESE,11.5,-,N/A,,Mostly Cloudy,110,2013-05-05 11:51:00
8:51 AM,57.0,41.0,55,30.14,10.0,ESE,10.4,-,N/A,,Mostly Cloudy,120,2013-05-05 12:51:00
9:51 AM,60.1,39.9,47,30.13,10.0,ESE,11.5,-,N/A,,Mostly Cloudy,120,2013-05-05 13:51:00
10:51 AM,63.0,37.0,38,30.12,10.0,East,13.8,19.6,N/A,,Mostly Cloudy,100,2013-05-05 14:51:00
11:51 AM,66.0,36.0,33,30.11,10.0,ESE,11.5,-,N/A,,Mostly Cloudy,120,2013-05-05 15:51:00
12:51 PM,66.0,35.1,32,30.10,10.0,SE,13.8,18.4,N/A,,Mostly Cloudy,130,2013-05-05 16:51:00
1:51 PM,70.0,30.9,24,30.08,10.0,SE,16.1,25.3,N/A,,Mostly Cloudy,130,2013-05-05 17:51:00
2:51 PM,72.0,30.0,21,30.06,10.0,East,19.6,28.8,N/A,,Scattered Clouds,100,2013-05-05 18:51:00
3:51 PM,73.9,24.1,16,30.03,10.0,ESE,16.1,21.9,N/A,,Scattered Clouds,120,2013-05-05 19:51:00
4:51 PM,73.9,19.9,13,30.02,10.0,SE,13.8,23.0,N/A,,Scattered Clouds,140,2013-05-05 20:51:00
5:51 PM,73.0,21.0,14,30.02,10.0,ESE,18.4,25.3,N/A,,Mostly Cloudy,120,2013-05-05 21:51:00
6:51 PM,71.1,18.0,13,30.02,10.0,SE,12.7,20.7,N/A,,Mostly Cloudy,130,2013-05-05 22:51:00
7:51 PM,68.0,19.9,16,30.03,10.0,ESE,10.4,-,N/A,,Mostly Cloudy,120,2013-05-05 23:51:00
8:51 PM,62.1,23.0,22,30.04,10.0,ESE,9.2,-,N/A,,Mostly Cloudy,110,2013-05-06 00:51:00
9:51 PM,62.1,21.9,21,30.05,10.0,ESE,10.4,-,N/A,,Mostly Cloudy,110,2013-05-06 01:51:00
10:51 PM,60.1,21.9,23,30.05,10.0,ESE,10.4,-,N/A,,Mostly Cloudy,120,2013-05-06 02:51:00
11:51 PM,55.9,25.0,30,30.06,10.0,ESE,10.4,-,N/A,,Mostly Cloudy,120,2013-05-06 03:51:00